Time,TemperatureF,DewpointF,PressureIn,WindDirection,WindDirectionDegrees,WindSpeedMPH,WindSpeedGustMPH,Humidity,HourlyPrecipIn,Conditions,Clouds,dailyrainin,SoftwareType,DateUTC
2013-09-21 00:01:00,53.6,45.5,30.00,West,276,0.0,1.0,74,0.00,,---,0.00,VWS V14.01,2013-09-21 05:01:00,
2013-09-21 00:06:00,53.5,45.4,30.00,NW,305,0.0,6.0,74,0.00,,---,0.00,VWS V14.01,2013-09-21 05:06:00,
2013-09-21 00:12:00,53.3,45.6,30.00,WNW,284,0.0,6.0,75,0.00,,---,0.00,VWS V14.01,2013-09-21 05:12:00,
2013-09-21 00:17:00,53.2,45.5,30.00,NW,308,1.0,6.0,75,0.00,,---,0.00,VWS V14.01,2013-09-21 05:17:00,
2013-09-21 00:22:00,52.9,45.2,30.00,NW,307,0.0,6.0,75,0.00,,---,0.00,VWS V14.01,2013-09-21 05:22:00,
2013-09-21 00:28:00,52.7,45.4,30.00,WSW,240,0.0,6.0,76,0.00,,---,0.00,VWS V14.01,2013-09-21 05:28:00,
2013-09-21 00:33:00,52.4,45.4,30.01,WSW,252,0.0,2.0,77,0.00,,---,0.00,VWS V14.01,2013-09-21 05:33:00,
2013-09-21 00:38:00,52.1,45.5,30.01,WSW,252,0.0,2.0,78,0.00,,---,0.00,VWS V14.01,2013-09-21 05:38:00,
2013-09-21 00:43:00,51.7,45.1,30.00,West,267,0.0,2.0,78,0.00,,---,0.00,VWS V14.01,2013-09-21 05:43:00,
2013-09-21 00:48:00,51.5,44.9,30.00,West,267,0.0,2.0,78,0.00,,---,0.00,VWS V14.01,2013-09-21 05:48:00,
2013-09-21 00:53:00,51.1,44.8,30.01,West,267,0.0,2.0,79,0.00,,---,0.00,VWS V14.01,2013-09-21 05:53:00,
2013-09-21 00:58:00,51.0,44.7,30.01,WSW,256,0.0,0.0,79,0.00,,---,0.00,VWS V14.01,2013-09-21 05:58:00,
2013-09-21 01:04:00,50.8,45.2,30.00,WSW,255,0.0,0.0,81,0.00,,---,0.00,VWS V14.01,2013-09-21 06:04:00,
2013-09-21 01:09:00,50.5,45.2,30.00,WSW,256,0.0,1.0,82,0.00,,---,0.00,VWS V14.01,2013-09-21 06:09:00,
2013-09-21 01:14:00,50.4,45.1,30.01,WSW,253,0.0,1.0,82,0.00,,---,0.00,VWS V14.01,2013-09-21 06:14:00,
2013-09-21 01:19:00,50.4,45.1,30.01,West,274,0.0,1.0,82,0.00,,---,0.00,VWS V14.01,2013-09-21 06:19:00,
2013-09-21 01:24:00,50.3,45.0,30.01,West,260,0.0,1.0,82,0.00,,---,0.00,VWS V14.01,2013-09-21 06:24:00,
2013-09-21 01:29:00,50.2,45.2,30.01,West,269,0.0,0.0,83,0.00,,---,0.00,VWS V14.01,2013-09-21 06:29:00,
2013-09-21 01:35:00,50.0,45.0,30.01,West,270,0.0,1.0,83,0.00,,---,0.00,VWS V14.01,2013-09-21 06:35:00,
2013-09-21 01:40:00,49.8,44.8,30.01,West,270,0.0,1.0,83,0.00,,---,0.00,VWS V14.01,2013-09-21 06:40:00,
2013-09-21 01:45:00,49.7,44.8,30.01,West,269,0.0,1.0,83,0.00,,---,0.00,VWS V14.01,2013-09-21 06:45:00,
2013-09-21 01:50:00,49.6,44.3,30.01,West,270,0.0,1.0,82,0.00,,---,0.00,VWS V14.01,2013-09-21 06:50:00,
2013-09-21 01:55:00,49.5,44.9,30.01,West,269,0.0,1.0,84,0.00,,---,0.00,VWS V14.01,2013-09-21 06:55:00,
2013-09-21 02:00:00,49.3,44.7,30.01,West,270,0.0,1.0,84,0.00,,---,0.00,VWS V14.01,2013-09-21 07:00:00,
2013-09-21 02:05:00,49.3,45.0,30.01,West,270,0.0,1.0,85,0.00,,---,0.00,VWS V14.01,2013-09-21 07:05:00,
2013-09-21 02:10:00,49.4,45.4,30.01,West,276,0.0,1.0,86,0.00,,---,0.00,VWS V14.01,2013-09-21 07:10:00,
2013-09-21 02:16:00,49.4,45.4,30.01,West,276,0.0,1.0,86,0.00,,---,0.00,VWS V14.01,2013-09-21 07:16:00,
2013-09-21 02:21:00,49.3,45.3,30.01,West,276,0.0,1.0,86,0.00,,---,0.00,VWS V14.01,2013-09-21 07:21:00,
2013-09-21 02:26:00,49.1,45.1,30.01,West,276,0.0,1.0,86,0.00,,---,0.00,VWS V14.01,2013-09-21 07:26:00,
2013-09-21 02:31:00,49.0,45.3,30.01,West,276,0.0,0.0,87,0.00,,---,0.00,VWS V14.01,2013-09-21 07:31:00,
2013-09-21 02:36:00,48.9,45.5,30.00,West,276,0.0,0.0,88,0.00,,---,0.00,VWS V14.01,2013-09-21 07:36:00,
2013-09-21 02:41:00,48.9,45.5,30.00,NW,322,0.0,1.0,88,0.00,,---,0.00,VWS V14.01,2013-09-21 07:41:00,
2013-09-21 02:46:00,49.0,45.3,30.00,NW,322,1.0,1.0,87,0.00,,---,0.00,VWS V14.01,2013-09-21 07:46:00,
2013-09-21 02:51:00,49.0,45.3,30.00,NW,322,1.0,1.0,87,0.00,,---,0.00,VWS V14.01,2013-09-21 07:51:00,
2013-09-21 02:57:00,49.1,45.1,30.00,NW,316,0.0,1.0,86,0.00,,---,0.00,VWS V14.01,2013-09-21 07:57:00,
2013-09-21 03:02:00,49.0,45.3,30.00,NW,318,0.0,1.0,87,0.00,,---,0.00,VWS V14.01,2013-09-21 08:02:00,
2013-09-21 03:07:00,49.2,45.2,30.00,SW,215,0.0,1.0,86,0.00,,---,0.00,VWS V14.01,2013-09-21 08:07:00,
2013-09-21 03:12:00,49.1,45.1,30.00,SW,215,0.0,1.0,86,0.00,,---,0.00,VWS V14.01,2013-09-21 08:12:00,
2013-09-21 03:17:00,49.0,45.0,30.00,SW,235,0.0,1.0,86,0.00,,---,0.00,VWS V14.01,2013-09-21 08:17:00,
2013-09-21 03:22:00,49.0,45.3,30.00,West,263,0.0,1.0,87,0.00,,---,0.00,VWS V14.01,2013-09-21 08:22:00,
2013-09-21 03:27:00,48.8,45.1,30.00,West,264,0.0,1.0,87,0.00,,---,0.00,VWS V14.01,2013-09-21 08:27:00,
2013-09-21 03:33:00,48.7,45.0,30.00,West,263,0.0,0.0,87,0.00,,---,0.00,VWS V14.01,2013-09-21 08:33:00,
2013-09-21 03:38:00,48.4,45.0,30.00,West,278,0.0,1.0,88,0.00,,---,0.00,VWS V14.01,2013-09-21 08:38:00,
2013-09-21 03:43:00,48.2,44.8,30.00,West,274,0.0,1.0,88,0.00,,---,0.00,VWS V14.01,2013-09-21 08:43:00,
2013-09-21 03:48:00,48.1,45.0,30.00,WSW,245,0.0,1.0,89,0.00,,---,0.00,VWS V14.01,2013-09-21 08:48:00,
2013-09-21 03:53:00,47.9,44.8,30.00,West,276,0.0,1.0,89,0.00,,---,0.00,VWS V14.01,2013-09-21 08:53:00,
2013-09-21 03:58:00,47.8,44.7,30.00,West,277,0.0,1.0,89,0.00,,---,0.00,VWS V14.01,2013-09-21 08:58:00,
2013-09-21 04:03:00,47.9,44.8,30.00,West,278,0.0,1.0,89,0.00,,---,0.00,VWS V14.01,2013-09-21 09:03:00,
2013-09-21 04:08:00,47.8,44.7,30.00,West,280,0.0,1.0,89,0.00,,---,0.00,VWS V14.01,2013-09-21 09:08:00,
2013-09-21 04:13:00,47.6,44.5,30.00,West,278,0.0,1.0,89,0.00,,---,0.00,VWS V14.01,2013-09-21 09:13:00,
2013-09-21 04:19:00,47.6,44.5,30.00,West,278,0.0,1.0,89,0.00,,---,0.00,VWS V14.01,2013-09-21 09:19:00,
2013-09-21 04:24:00,47.5,44.7,30.01,West,278,1.0,1.0,90,0.00,,---,0.00,VWS V14.01,2013-09-21 09:24:00,
2013-09-21 04:29:00,47.5,44.7,30.01,West,278,0.0,0.0,90,0.00,,---,0.00,VWS V14.01,2013-09-21 09:29:00,
2013-09-21 04:34:00,47.5,44.7,30.01,West,264,0.0,1.0,90,0.00,,---,0.00,VWS V14.01,2013-09-21 09:34:00,
2013-09-21 04:39:00,47.4,44.6,30.01,West,267,0.0,1.0,90,0.00,,---,0.00,VWS V14.01,2013-09-21 09:39:00,
2013-09-21 04:44:00,47.3,44.5,30.01,West,267,0.0,1.0,90,0.00,,---,0.00,VWS V14.01,2013-09-21 09:44:00,
2013-09-21 04:49:00,47.1,44.3,30.01,West,267,0.0,1.0,90,0.00,,---,0.00,VWS V14.01,2013-09-21 09:49:00,
2013-09-21 04:54:00,46.9,44.4,30.01,West,267,0.0,1.0,91,0.00,,---,0.00,VWS V14.01,2013-09-21 09:54:00,
2013-09-21 04:59:00,46.9,44.4,30.01,West,259,0.0,1.0,91,0.00,,---,0.00,VWS V14.01,2013-09-21 09:59:00,
2013-09-21 05:04:00,46.9,44.4,30.01,NW,325,1.0,1.0,91,0.00,,---,0.00,VWS V14.01,2013-09-21 10:04:00,
2013-09-21 05:10:00,46.9,44.1,30.01,West,263,1.0,2.0,90,0.00,,---,0.00,VWS V14.01,2013-09-21 10:10:00,
2013-09-21 05:15:00,47.1,44.3,30.01,WNW,297,0.0,2.0,90,0.00,,---,0.00,VWS V14.01,2013-09-21 10:15:00,
2013-09-21 05:20:00,47.1,44.3,30.01,NNW,342,0.0,2.0,90,0.00,,---,0.00,VWS V14.01,2013-09-21 10:20:00,
2013-09-21 05:25:00,47.1,44.3,30.01,West,274,0.0,2.0,90,0.00,,---,0.00,VWS V14.01,2013-09-21 10:25:00,
2013-09-21 05:30:00,47.1,44.0,30.01,WNW,283,0.0,1.0,89,0.00,,---,0.00,VWS V14.01,2013-09-21 10:30:00,
2013-09-21 05:35:00,47.2,44.1,30.02,SW,235,0.0,1.0,89,0.00,,---,0.00,VWS V14.01,2013-09-21 10:35:00,
2013-09-21 05:40:00,47.1,44.0,30.02,WSW,255,0.0,1.0,89,0.00,,---,0.00,VWS V14.01,2013-09-21 10:40:00,
2013-09-21 05:45:00,46.8,44.0,30.02,WSW,255,0.0,1.0,90,0.00,,---,0.00,VWS V14.01,2013-09-21 10:45:00,
2013-09-21 05:50:00,46.5,43.7,30.02,WNW,283,0.0,2.0,90,0.00,,---,0.00,VWS V14.01,2013-09-21 10:50:00,
2013-09-21 05:56:00,46.3,43.8,30.02,WNW,287,0.0,2.0,91,0.00,,---,0.00,VWS V14.01,2013-09-21 10:56:00,
2013-09-21 06:01:00,46.1,43.6,30.02,WNW,287,0.0,1.0,91,0.00,,---,0.00,VWS V14.01,2013-09-21 11:01:00,
2013-09-21 06:06:00,46.0,43.5,30.02,WNW,287,0.0,1.0,91,0.00,,---,0.00,VWS V14.01,2013-09-21 11:06:00,
2013-09-21 06:11:00,45.9,43.7,30.02,NNW,328,0.0,1.0,92,0.00,,---,0.00,VWS V14.01,2013-09-21 11:11:00,
2013-09-21 06:16:00,45.9,43.7,30.02,NNW,328,0.0,1.0,92,0.00,,---,0.00,VWS V14.01,2013-09-21 11:16:00,
2013-09-21 06:21:00,45.9,43.7,30.02,NNW,328,0.0,1.0,92,0.00,,---,0.00,VWS V14.01,2013-09-21 11:21:00,
2013-09-21 06:26:00,45.9,43.7,30.03,NNW,328,0.0,1.0,92,0.00,,---,0.00,VWS V14.01,2013-09-21 11:26:00,
2013-09-21 06:31:00,45.9,43.7,30.03,NNW,328,0.0,0.0,92,0.00,,---,0.00,VWS V14.01,2013-09-21 11:31:00,
2013-09-21 06:36:00,45.8,43.6,30.03,NNW,328,0.0,0.0,92,0.00,,---,0.00,VWS V14.01,2013-09-21 11:36:00,
2013-09-21 06:41:00,45.7,43.5,30.03,NNW,328,0.0,0.0,92,0.00,,---,0.00,VWS V14.01,2013-09-21 11:41:00,
2013-09-21 06:46:00,45.7,43.8,30.03,West,262,0.0,2.0,93,0.00,,---,0.00,VWS V14.01,2013-09-21 11:46:00,
2013-09-21 06:52:00,45.9,44.0,30.03,WNW,284,0.0,2.0,93,0.00,,---,0.00,VWS V14.01,2013-09-21 11:52:00,
2013-09-21 06:57:00,46.0,43.8,30.04,WSW,256,0.0,2.0,92,0.00,,---,0.00,VWS V14.01,2013-09-21 11:57:00,
2013-09-21 07:02:00,46.0,43.8,30.04,West,263,1.0,1.0,92,0.00,,---,0.00,VWS V14.01,2013-09-21 12:02:00,
2013-09-21 07:07:00,45.9,43.7,30.04,West,278,0.0,1.0,92,0.00,,---,0.00,VWS V14.01,2013-09-21 12:07:00,
2013-09-21 07:12:00,45.8,43.6,30.04,WNW,284,0.0,1.0,92,0.00,,---,0.00,VWS V14.01,2013-09-21 12:12:00,
2013-09-21 07:17:00,45.7,43.5,30.04,WNW,284,0.0,1.0,92,0.00,,---,0.00,VWS V14.01,2013-09-21 12:17:00,
2013-09-21 07:22:00,45.7,43.8,30.04,WNW,284,0.0,1.0,93,0.00,,---,0.00,VWS V14.01,2013-09-21 12:22:00,
2013-09-21 07:27:00,45.6,43.7,30.04,WNW,284,0.0,1.0,93,0.00,,---,0.00,VWS V14.01,2013-09-21 12:27:00,
2013-09-21 07:32:00,46.1,44.2,30.05,WNW,284,0.0,0.0,93,0.00,,---,0.00,VWS V14.01,2013-09-21 12:32:00,
2013-09-21 07:37:00,46.9,45.0,30.05,WNW,284,0.0,0.0,93,0.00,,---,0.00,VWS V14.01,2013-09-21 12:37:00,
2013-09-21 07:42:00,47.9,45.7,30.05,WNW,283,0.0,0.0,92,0.00,,---,0.00,VWS V14.01,2013-09-21 12:42:00,
2013-09-21 07:47:00,49.3,47.1,30.05,WNW,284,0.0,0.0,92,0.00,,---,0.00,VWS V14.01,2013-09-21 12:47:00,
2013-09-21 07:52:00,50.2,47.4,30.05,WNW,284,0.0,0.0,90,0.00,,---,0.00,VWS V14.01,2013-09-21 12:52:00,
2013-09-21 07:57:00,51.0,47.6,30.05,WNW,284,0.0,0.0,88,0.00,,---,0.00,VWS V14.01,2013-09-21 12:57:00,
2013-09-21 08:03:00,51.7,48.0,30.05,WNW,283,0.0,0.0,87,0.00,,---,0.00,VWS V14.01,2013-09-21 13:03:00,
2013-09-21 08:08:00,52.0,47.6,30.06,West,278,1.0,1.0,85,0.00,,---,0.00,VWS V14.01,2013-09-21 13:08:00,
2013-09-21 08:13:00,51.6,46.9,30.06,WSW,240,1.0,2.0,84,0.00,,---,0.00,VWS V14.01,2013-09-21 13:13:00,
2013-09-21 08:18:00,51.3,47.0,30.06,WNW,287,1.0,3.0,85,0.00,,---,0.00,VWS V14.01,2013-09-21 13:18:00,
2013-09-21 08:23:00,51.2,46.8,30.06,West,269,1.0,3.0,85,0.00,,---,0.00,VWS V14.01,2013-09-21 13:23:00,
2013-09-21 08:28:00,51.5,47.2,30.06,WSW,252,1.0,3.0,85,0.00,,---,0.00,VWS V14.01,2013-09-21 13:28:00,
2013-09-21 08:34:00,51.8,46.8,30.06,West,260,2.0,2.0,83,0.00,,---,0.00,VWS V14.01,2013-09-21 13:34:00,
2013-09-21 08:39:00,52.2,47.2,30.06,WNW,293,1.0,3.0,83,0.00,,---,0.00,VWS V14.01,2013-09-21 13:39:00,
2013-09-21 08:44:00,52.8,47.1,30.06,West,267,0.0,3.0,81,0.00,,---,0.00,VWS V14.01,2013-09-21 13:44:00,
2013-09-21 08:49:00,53.4,47.4,30.06,West,281,0.0,3.0,80,0.00,,---,0.00,VWS V14.01,2013-09-21 13:49:00,
2013-09-21 08:55:00,54.1,47.7,30.06,WSW,250,0.0,3.0,79,0.00,,---,0.00,VWS V14.01,2013-09-21 13:55:00,
2013-09-21 09:00:00,54.6,48.2,30.07,WSW,250,1.0,3.0,79,0.00,,---,0.00,VWS V14.01,2013-09-21 14:00:00,
2013-09-21 09:05:00,55.3,48.6,30.06,NW,313,3.0,4.0,78,0.00,,---,0.00,VWS V14.01,2013-09-21 14:05:00,
2013-09-21 09:10:00,55.6,48.2,30.06,WSW,252,2.0,4.0,76,0.00,,---,0.00,VWS V14.01,2013-09-21 14:10:00,
2013-09-21 09:15:00,56.0,47.8,30.06,WSW,252,2.0,4.0,74,0.00,,---,0.00,VWS V14.01,2013-09-21 14:15:00,
2013-09-21 09:20:00,56.0,47.8,30.07,West,270,3.0,4.0,74,0.00,,---,0.00,VWS V14.01,2013-09-21 14:20:00,
2013-09-21 09:25:00,56.2,47.7,30.07,SW,232,1.0,5.0,73,0.00,,---,0.00,VWS V14.01,2013-09-21 14:25:00,
2013-09-21 09:30:00,56.3,47.8,30.07,West,278,2.0,2.0,73,0.00,,---,0.00,VWS V14.01,2013-09-21 14:30:00,
2013-09-21 09:35:00,56.6,47.7,30.07,West,272,1.0,4.0,72,0.00,,---,0.00,VWS V14.01,2013-09-21 14:35:00,
2013-09-21 09:41:00,56.8,47.9,30.07,WNW,297,1.0,4.0,72,0.00,,---,0.00,VWS V14.01,2013-09-21 14:41:00,
2013-09-21 09:46:00,56.8,47.5,30.07,North,358,0.0,6.0,71,0.00,,---,0.00,VWS V14.01,2013-09-21 14:46:00,
2013-09-21 09:51:00,57.1,47.8,30.07,NNW,346,0.0,6.0,71,0.00,,---,0.00,VWS V14.01,2013-09-21 14:51:00,
2013-09-21 09:56:00,57.1,48.2,30.07,NW,321,2.0,6.0,72,0.00,,---,0.00,VWS V14.01,2013-09-21 14:56:00,
2013-09-21 10:01:00,57.1,47.8,30.07,NW,312,4.0,6.0,71,0.00,,---,0.00,VWS V14.01,2013-09-21 15:01:00,
2013-09-21 10:06:00,57.8,48.1,30.07,NE,46,1.0,6.0,70,0.00,,---,0.00,VWS V14.01,2013-09-21 15:06:00,
2013-09-21 10:11:00,58.0,47.9,30.07,NNW,330,3.0,6.0,69,0.00,,---,0.00,VWS V14.01,2013-09-21 15:11:00,
2013-09-21 10:16:00,57.9,48.2,30.07,West,267,2.0,6.0,70,0.00,,---,0.00,VWS V14.01,2013-09-21 15:16:00,
2013-09-21 10:21:00,58.4,48.3,30.07,West,276,2.0,6.0,69,0.00,,---,0.00,VWS V14.01,2013-09-21 15:21:00,
2013-09-21 10:26:00,59.2,48.7,30.06,NE,53,0.0,6.0,68,0.00,,---,0.00,VWS V14.01,2013-09-21 15:26:00,
2013-09-21 10:31:00,59.9,48.1,30.06,NNW,331,2.0,4.0,65,0.00,,---,0.00,VWS V14.01,2013-09-21 15:31:00,
2013-09-21 10:36:00,59.6,47.8,30.06,SW,232,3.0,5.0,65,0.00,,---,0.00,VWS V14.01,2013-09-21 15:36:00,
2013-09-21 10:41:00,59.7,47.5,30.06,NNE,20,0.0,7.0,64,0.00,,---,0.00,VWS V14.01,2013-09-21 15:41:00,
2013-09-21 10:46:00,60.2,47.6,30.07,West,278,0.0,7.0,63,0.00,,---,0.00,VWS V14.01,2013-09-21 15:46:00,
2013-09-21 10:52:00,60.5,47.4,30.07,NNW,340,0.0,7.0,62,0.00,,---,0.00,VWS V14.01,2013-09-21 15:52:00,
2013-09-21 10:57:00,61.4,48.3,30.07,North,358,3.0,7.0,62,0.00,,---,0.00,VWS V14.01,2013-09-21 15:57:00,
2013-09-21 11:02:00,61.6,48.0,30.07,West,274,2.0,5.0,61,0.00,,---,0.00,VWS V14.01,2013-09-21 16:02:00,
2013-09-21 11:07:00,61.3,47.3,30.07,West,276,3.0,9.0,60,0.00,,---,0.00,VWS V14.01,2013-09-21 16:07:00,
2013-09-21 11:12:00,61.7,48.1,30.06,NW,317,1.0,9.0,61,0.00,,---,0.00,VWS V14.01,2013-09-21 16:12:00,
2013-09-21 11:17:00,62.0,47.5,30.06,NNW,337,2.0,9.0,59,0.00,,---,0.00,VWS V14.01,2013-09-21 16:17:00,
2013-09-21 11:22:00,62.0,47.1,30.06,WNW,301,2.0,9.0,58,0.00,,---,0.00,VWS V14.01,2013-09-21 16:22:00,
2013-09-21 11:27:00,61.9,47.4,30.06,West,273,2.0,9.0,59,0.00,,---,0.00,VWS V14.01,2013-09-21 16:27:00,
2013-09-21 11:33:00,62.3,48.2,30.06,NW,314,5.0,6.0,60,0.00,,---,0.00,VWS V14.01,2013-09-21 16:33:00,
2013-09-21 11:38:00,62.7,47.7,30.06,WNW,282,2.0,6.0,58,0.00,,---,0.00,VWS V14.01,2013-09-21 16:38:00,
2013-09-21 11:43:00,62.9,47.0,30.06,WNW,285,2.0,6.0,56,0.00,,---,0.00,VWS V14.01,2013-09-21 16:43:00,
2013-09-21 11:48:00,63.0,47.5,30.06,WSW,239,0.0,8.0,57,0.00,,---,0.00,VWS V14.01,2013-09-21 16:48:00,
2013-09-21 11:53:00,63.7,47.2,30.05,WNW,300,5.0,8.0,55,0.00,,---,0.00,VWS V14.01,2013-09-21 16:53:00,
2013-09-21 11:58:00,63.8,47.8,30.05,South,190,0.0,8.0,56,0.00,,---,0.00,VWS V14.01,2013-09-21 16:58:00,
2013-09-21 12:03:00,64.7,48.2,30.05,West,268,7.0,7.0,55,0.00,,---,0.00,VWS V14.01,2013-09-21 17:03:00,
2013-09-21 12:08:00,64.1,48.1,30.05,SW,217,0.0,7.0,56,0.00,,---,0.00,VWS V14.01,2013-09-21 17:08:00,
2013-09-21 12:14:00,64.5,47.5,30.05,North,6,5.0,7.0,54,0.00,,---,0.00,VWS V14.01,2013-09-21 17:14:00,
2013-09-21 12:19:00,64.3,47.3,30.05,North,4,2.0,7.0,54,0.00,,---,0.00,VWS V14.01,2013-09-21 17:19:00,
2013-09-21 12:24:00,64.8,46.8,30.05,SSW,207,1.0,7.0,52,0.00,,---,0.00,VWS V14.01,2013-09-21 17:24:00,
2013-09-21 12:29:00,64.9,47.4,30.05,ENE,76,3.0,3.0,53,0.00,,---,0.00,VWS V14.01,2013-09-21 17:29:00,
2013-09-21 12:34:00,65.1,47.6,30.04,NW,312,4.0,7.0,53,0.00,,---,0.00,VWS V14.01,2013-09-21 17:34:00,
2013-09-21 12:39:00,65.0,47.0,30.04,WSW,237,3.0,7.0,52,0.00,,---,0.00,VWS V14.01,2013-09-21 17:39:00,
2013-09-21 12:45:00,65.2,47.2,30.04,NW,304,3.0,7.0,52,0.00,,---,0.00,VWS V14.01,2013-09-21 17:45:00,
2013-09-21 12:50:00,65.6,47.5,30.04,WSW,242,2.0,7.0,52,0.00,,---,0.00,VWS V14.01,2013-09-21 17:50:00,
2013-09-21 12:55:00,65.9,47.8,30.04,SW,229,2.0,7.0,52,0.00,,---,0.00,VWS V14.01,2013-09-21 17:55:00,
2013-09-21 13:00:00,66.2,48.1,30.03,SW,221,0.0,2.0,52,0.00,,---,0.00,VWS V14.01,2013-09-21 18:00:00,
2013-09-21 13:05:00,66.9,47.7,30.03,NE,40,2.0,5.0,50,0.00,,---,0.00,VWS V14.01,2013-09-21 18:05:00,
2013-09-21 13:10:00,67.9,47.5,30.03,WNW,284,5.0,5.0,48,0.00,,---,0.00,VWS V14.01,2013-09-21 18:10:00,
2013-09-21 13:15:00,67.7,46.2,30.03,WSW,252,2.0,7.0,46,0.00,,---,0.00,VWS V14.01,2013-09-21 18:15:00,
2013-09-21 13:20:00,67.4,46.5,30.02,WNW,287,4.0,8.0,47,0.00,,---,0.00,VWS V14.01,2013-09-21 18:20:00,
2013-09-21 13:26:00,67.5,47.1,30.02,SW,233,2.0,8.0,48,0.00,,---,0.00,VWS V14.01,2013-09-21 18:26:00,
2013-09-21 13:31:00,67.6,46.7,30.02,WNW,290,2.0,6.0,47,0.00,,---,0.00,VWS V14.01,2013-09-21 18:31:00,
2013-09-21 13:36:00,67.3,46.4,30.02,WNW,286,4.0,6.0,47,0.00,,---,0.00,VWS V14.01,2013-09-21 18:36:00,
2013-09-21 13:41:00,67.3,46.4,30.02,NNE,26,1.0,6.0,47,0.00,,---,0.00,VWS V14.01,2013-09-21 18:41:00,
2013-09-21 13:46:00,68.4,47.4,30.01,SW,232,0.0,6.0,47,0.00,,---,0.00,VWS V14.01,2013-09-21 18:46:00,
2013-09-21 13:51:00,68.3,46.7,30.01,NNW,347,1.0,8.0,46,0.00,,---,0.00,VWS V14.01,2013-09-21 18:51:00,
2013-09-21 13:56:00,67.9,47.0,30.01,NW,317,2.0,8.0,47,0.00,,---,0.00,VWS V14.01,2013-09-21 18:56:00,
2013-09-21 14:02:00,67.7,47.3,30.01,West,270,2.0,7.0,48,0.00,,---,0.00,VWS V14.01,2013-09-21 19:02:00,
2013-09-21 14:07:00,68.0,46.5,30.01,WNW,302,2.0,8.0,46,0.00,,---,0.00,VWS V14.01,2013-09-21 19:07:00,
2013-09-21 14:12:00,69.0,47.4,30.01,West,276,2.0,8.0,46,0.00,,---,0.00,VWS V14.01,2013-09-21 19:12:00,
2013-09-21 14:17:00,69.2,47.6,30.01,West,277,1.0,8.0,46,0.00,,---,0.00,VWS V14.01,2013-09-21 19:17:00,
2013-09-21 14:22:00,69.0,46.2,30.00,WSW,238,2.0,8.0,44,0.00,,---,0.00,VWS V14.01,2013-09-21 19:22:00,
2013-09-21 14:27:00,69.1,46.3,30.00,North,354,1.0,8.0,44,0.00,,---,0.00,VWS V14.01,2013-09-21 19:27:00,
2013-09-21 14:32:00,69.7,46.8,30.00,SW,219,3.0,4.0,44,0.00,,---,0.00,VWS V14.01,2013-09-21 19:32:00,
2013-09-21 14:37:00,70.1,47.2,30.00,NW,320,2.0,4.0,44,0.00,,---,0.00,VWS V14.01,2013-09-21 19:37:00,
2013-09-21 14:43:00,70.1,47.2,29.99,WSW,245,1.0,5.0,44,0.00,,---,0.00,VWS V14.01,2013-09-21 19:43:00,
2013-09-21 14:48:00,70.0,46.5,29.99,West,264,3.0,8.0,43,0.00,,---,0.00,VWS V14.01,2013-09-21 19:48:00,
2013-09-21 14:53:00,70.0,45.9,29.99,NE,51,5.0,8.0,42,0.00,,---,0.00,VWS V14.01,2013-09-21 19:53:00,
2013-09-21 14:58:00,70.2,47.9,29.99,SE,146,0.0,8.0,45,0.00,,---,0.00,VWS V14.01,2013-09-21 19:58:00,
2013-09-21 15:03:00,70.7,47.1,29.99,ESE,122,1.0,4.0,43,0.00,,---,0.00,VWS V14.01,2013-09-21 20:03:00,
2013-09-21 15:08:00,70.9,46.0,29.98,NW,312,3.0,6.0,41,0.00,,---,0.00,VWS V14.01,2013-09-21 20:08:00,
2013-09-21 15:13:00,70.3,46.8,29.98,West,264,3.0,6.0,43,0.00,,---,0.00,VWS V14.01,2013-09-21 20:13:00,
2013-09-21 15:19:00,70.3,46.8,29.98,WSW,252,4.0,6.0,43,0.00,,---,0.00,VWS V14.01,2013-09-21 20:19:00,
2013-09-21 15:24:00,70.6,47.7,29.98,East,93,1.0,6.0,44,0.00,,---,0.00,VWS V14.01,2013-09-21 20:24:00,
2013-09-21 15:29:00,70.7,47.1,29.98,West,259,1.0,1.0,43,0.00,,---,0.00,VWS V14.01,2013-09-21 20:29:00,
2013-09-21 15:34:00,70.7,46.5,29.97,SW,225,2.0,5.0,42,0.00,,---,0.00,VWS V14.01,2013-09-21 20:34:00,
2013-09-21 15:39:00,71.4,47.8,29.97,ESE,121,0.0,5.0,43,0.00,,---,0.00,VWS V14.01,2013-09-21 20:39:00,
2013-09-21 15:44:00,71.8,46.9,29.97,SW,215,3.0,6.0,41,0.00,,---,0.00,VWS V14.01,2013-09-21 20:44:00,
2013-09-21 15:49:00,71.2,46.3,29.97,WNW,297,1.0,7.0,41,0.00,,---,0.00,VWS V14.01,2013-09-21 20:49:00,
2013-09-21 15:55:00,71.1,46.2,29.96,North,349,1.0,7.0,41,0.00,,---,0.00,VWS V14.01,2013-09-21 20:55:00,
2013-09-21 16:00:00,71.1,46.2,29.96,WNW,300,2.0,2.0,41,0.00,,---,0.00,VWS V14.01,2013-09-21 21:00:00,
2013-09-21 16:05:00,70.9,46.0,29.96,WNW,290,2.0,7.0,41,0.00,,---,0.00,VWS V14.01,2013-09-21 21:05:00,
2013-09-21 16:10:00,71.0,48.0,29.96,North,4,4.0,7.0,44,0.00,,---,0.00,VWS V14.01,2013-09-21 21:10:00,
2013-09-21 16:15:00,71.4,45.8,29.96,NW,324,0.0,7.0,40,0.00,,---,0.00,VWS V14.01,2013-09-21 21:15:00,
2013-09-21 16:20:00,71.8,46.2,29.96,NNE,32,3.0,7.0,40,0.00,,---,0.00,VWS V14.01,2013-09-21 21:20:00,
2013-09-21 16:25:00,71.8,46.9,29.95,West,277,1.0,7.0,41,0.00,,---,0.00,VWS V14.01,2013-09-21 21:25:00,
2013-09-21 16:30:00,71.9,47.0,29.95,South,190,1.0,1.0,41,0.00,,---,0.00,VWS V14.01,2013-09-21 21:30:00,
2013-09-21 16:36:00,72.0,45.7,29.95,SW,236,2.0,3.0,39,0.00,,---,0.00,VWS V14.01,2013-09-21 21:36:00,
2013-09-21 16:41:00,72.3,47.3,29.95,SE,145,0.0,3.0,41,0.00,,---,0.00,VWS V14.01,2013-09-21 21:41:00,
2013-09-21 16:46:00,72.2,46.6,29.94,ESE,105,2.0,3.0,40,0.00,,---,0.00,VWS V14.01,2013-09-21 21:46:00,
2013-09-21 16:51:00,71.7,48.0,29.94,East,82,0.0,3.0,43,0.00,,---,0.00,VWS V14.01,2013-09-21 21:51:00,
2013-09-21 16:56:00,72.4,46.7,29.94,NNW,345,2.0,3.0,40,0.00,,---,0.00,VWS V14.01,2013-09-21 21:56:00,
2013-09-21 17:01:00,72.0,47.0,29.94,North,356,0.0,3.0,41,0.00,,---,0.00,VWS V14.01,2013-09-21 22:01:00,
2013-09-21 17:06:00,72.4,46.7,29.94,ENE,58,2.0,3.0,40,0.00,,---,0.00,VWS V14.01,2013-09-21 22:06:00,
2013-09-21 17:12:00,72.6,46.9,29.94,SSW,210,1.0,3.0,40,0.00,,---,0.00,VWS V14.01,2013-09-21 22:12:00,
2013-09-21 17:17:00,73.0,47.3,29.94,SE,124,1.0,3.0,40,0.00,,---,0.00,VWS V14.01,2013-09-21 22:17:00,
2013-09-21 17:22:00,73.4,47.6,29.94,SE,124,0.0,3.0,40,0.00,,---,0.00,VWS V14.01,2013-09-21 22:22:00,
2013-09-21 17:27:00,73.6,49.1,29.94,SW,231,1.0,3.0,42,0.00,,---,0.00,VWS V14.01,2013-09-21 22:27:00,
2013-09-21 17:32:00,73.3,46.9,29.93,SW,222,0.0,1.0,39,0.00,,---,0.00,VWS V14.01,2013-09-21 22:32:00,
2013-09-21 17:37:00,73.5,47.7,29.93,ESE,109,0.0,1.0,40,0.00,,---,0.00,VWS V14.01,2013-09-21 22:37:00,
2013-09-21 17:42:00,73.4,49.6,29.93,SE,136,0.0,1.0,43,0.00,,---,0.00,VWS V14.01,2013-09-21 22:42:00,
2013-09-21 17:48:00,73.0,48.6,29.93,SSW,210,0.0,2.0,42,0.00,,---,0.00,VWS V14.01,2013-09-21 22:48:00,
2013-09-21 17:53:00,72.6,46.9,29.93,SSE,150,1.0,3.0,40,0.00,,---,0.00,VWS V14.01,2013-09-21 22:53:00,
2013-09-21 17:58:00,72.1,47.8,29.93,SSE,155,0.0,3.0,42,0.00,,---,0.00,VWS V14.01,2013-09-21 22:58:00,
2013-09-21 18:03:00,72.1,48.4,29.93,SSE,156,0.0,1.0,43,0.00,,---,0.00,VWS V14.01,2013-09-21 23:03:00,
2013-09-21 18:08:00,71.7,48.7,29.93,SE,138,0.0,1.0,44,0.00,,---,0.00,VWS V14.01,2013-09-21 23:08:00,
2013-09-21 18:13:00,71.0,48.0,29.93,ESE,112,0.0,2.0,44,0.00,,---,0.00,VWS V14.01,2013-09-21 23:13:00,
2013-09-21 18:19:00,71.0,48.0,29.93,ESE,111,0.0,2.0,44,0.00,,---,0.00,VWS V14.01,2013-09-21 23:19:00,
2013-09-21 18:24:00,71.4,48.4,29.93,ESE,111,0.0,2.0,44,0.00,,---,0.00,VWS V14.01,2013-09-21 23:24:00,
2013-09-21 18:29:00,70.7,48.3,29.93,ESE,111,0.0,0.0,45,0.00,,---,0.00,VWS V14.01,2013-09-21 23:29:00,
2013-09-21 18:34:00,69.7,48.0,29.93,ESE,122,0.0,1.0,46,0.00,,---,0.00,VWS V14.01,2013-09-21 23:34:00,
2013-09-21 18:39:00,68.8,47.8,29.93,ESE,122,0.0,1.0,47,0.00,,---,0.00,VWS V14.01,2013-09-21 23:39:00,
2013-09-21 18:44:00,68.0,48.2,29.93,ESE,123,0.0,1.0,49,0.00,,---,0.00,VWS V14.01,2013-09-21 23:44:00,
2013-09-21 18:49:00,67.5,49.3,29.93,ESE,123,0.0,1.0,52,0.00,,---,0.00,VWS V14.01,2013-09-21 23:49:00,
2013-09-21 18:55:00,66.8,49.6,29.93,ESE,123,0.0,1.0,54,0.00,,---,0.00,VWS V14.01,2013-09-21 23:55:00,
2013-09-21 19:00:00,66.1,49.5,29.93,ESE,122,0.0,0.0,55,0.00,,---,0.00,VWS V14.01,2013-09-22 00:00:00,
2013-09-21 19:05:00,65.3,49.2,29.93,ESE,122,0.0,0.0,56,0.00,,---,0.00,VWS V14.01,2013-09-22 00:05:00,
2013-09-21 19:10:00,64.5,49.9,29.93,ESE,123,0.0,0.0,59,0.00,,---,0.00,VWS V14.01,2013-09-22 00:10:00,
2013-09-21 19:15:00,63.8,50.1,29.93,ESE,123,0.0,0.0,61,0.00,,---,0.00,VWS V14.01,2013-09-22 00:15:00,
2013-09-21 19:20:00,63.1,49.9,29.93,ESE,123,0.0,0.0,62,0.00,,---,0.00,VWS V14.01,2013-09-22 00:20:00,
2013-09-21 19:25:00,62.5,50.6,29.93,ESE,123,0.0,0.0,65,0.00,,---,0.00,VWS V14.01,2013-09-22 00:25:00,
2013-09-21 19:31:00,62.0,50.1,29.93,ESE,123,0.0,0.0,65,0.00,,---,0.00,VWS V14.01,2013-09-22 00:31:00,
2013-09-21 19:36:00,61.7,49.0,29.93,ESE,122,0.0,0.0,63,0.00,,---,0.00,VWS V14.01,2013-09-22 00:36:00,
2013-09-21 19:41:00,61.5,48.4,29.93,SE,135,0.0,1.0,62,0.00,,---,0.00,VWS V14.01,2013-09-22 00:41:00,
2013-09-21 19:47:00,61.6,48.9,29.93,SE,135,0.0,1.0,63,0.00,,---,0.00,VWS V14.01,2013-09-22 00:47:00,
2013-09-21 19:52:00,61.5,47.9,29.93,SE,135,0.0,1.0,61,0.00,,---,0.00,VWS V14.01,2013-09-22 00:52:00,
2013-09-21 19:57:00,61.5,48.4,29.93,SE,135,0.0,1.0,62,0.00,,---,0.00,VWS V14.01,2013-09-22 00:57:00,
2013-09-21 20:02:00,61.4,47.8,29.93,SE,135,0.0,0.0,61,0.00,,---,0.00,VWS V14.01,2013-09-22 01:02:00,
2013-09-21 20:07:00,61.6,48.0,29.93,SE,135,0.0,1.0,61,0.00,,---,0.00,VWS V14.01,2013-09-22 01:07:00,
2013-09-21 20:13:00,61.6,48.0,29.93,SE,136,0.0,1.0,61,0.00,,---,0.00,VWS V14.01,2013-09-22 01:13:00,
2013-09-21 20:18:00,61.1,47.6,29.94,SE,135,0.0,1.0,61,0.00,,---,0.00,VWS V14.01,2013-09-22 01:18:00,
2013-09-21 20:23:00,60.9,47.4,29.94,ESE,113,0.0,1.0,61,0.00,,---,0.00,VWS V14.01,2013-09-22 01:23:00,
2013-09-21 20:28:00,60.9,48.2,29.94,ESE,113,0.0,1.0,63,0.00,,---,0.00,VWS V14.01,2013-09-22 01:28:00,
2013-09-21 20:33:00,60.6,48.0,29.94,ESE,113,0.0,0.0,63,0.00,,---,0.00,VWS V14.01,2013-09-22 01:33:00,
2013-09-21 20:38:00,60.2,47.6,29.94,ESE,113,0.0,0.0,63,0.00,,---,0.00,VWS V14.01,2013-09-22 01:38:00,
2013-09-21 20:44:00,60.2,48.0,29.94,ESE,113,0.0,0.0,64,0.00,,---,0.00,VWS V14.01,2013-09-22 01:44:00,
2013-09-21 20:49:00,60.3,48.1,29.94,ESE,113,0.0,0.0,64,0.00,,---,0.00,VWS V14.01,2013-09-22 01:49:00,
2013-09-21 20:54:00,60.1,48.3,29.94,South,181,0.0,0.0,65,0.00,,---,0.00,VWS V14.01,2013-09-22 01:54:00,
2013-09-21 20:59:00,60.2,48.4,29.94,South,181,0.0,0.0,65,0.00,,---,0.00,VWS V14.01,2013-09-22 01:59:00,
2013-09-21 21:04:00,60.4,48.2,29.94,SE,142,0.0,0.0,64,0.00,,---,0.00,VWS V14.01,2013-09-22 02:04:00,
2013-09-21 21:10:00,60.4,48.6,29.94,SE,142,0.0,0.0,65,0.00,,---,0.00,VWS V14.01,2013-09-22 02:10:00,
2013-09-21 21:15:00,59.9,48.5,29.94,SE,142,0.0,0.0,66,0.00,,---,0.00,VWS V14.01,2013-09-22 02:15:00,
2013-09-21 21:20:00,59.3,47.5,29.94,SE,142,0.0,0.0,65,0.00,,---,0.00,VWS V14.01,2013-09-22 02:20:00,
2013-09-21 21:25:00,58.9,48.0,29.95,SE,142,0.0,0.0,67,0.00,,---,0.00,VWS V14.01,2013-09-22 02:25:00,
2013-09-21 21:30:00,58.9,48.0,29.95,SE,142,0.0,0.0,67,0.00,,---,0.00,VWS V14.01,2013-09-22 02:30:00,
2013-09-21 21:35:00,59.0,48.5,29.95,SE,142,0.0,0.0,68,0.00,,---,0.00,VWS V14.01,2013-09-22 02:35:00,
2013-09-21 21:40:00,58.5,48.0,29.95,SE,142,0.0,0.0,68,0.00,,---,0.00,VWS V14.01,2013-09-22 02:40:00,
2013-09-21 21:46:00,58.1,48.4,29.95,SE,142,0.0,0.0,70,0.00,,---,0.00,VWS V14.01,2013-09-22 02:46:00,
2013-09-21 21:51:00,58.0,47.9,29.95,SE,142,0.0,0.0,69,0.00,,---,0.00,VWS V14.01,2013-09-22 02:51:00,
2013-09-21 21:56:00,58.5,48.4,29.95,SE,142,0.0,0.0,69,0.00,,---,0.00,VWS V14.01,2013-09-22 02:56:00,
2013-09-21 22:01:00,58.4,47.9,29.95,SE,142,0.0,0.0,68,0.00,,---,0.00,VWS V14.01,2013-09-22 03:01:00,
2013-09-21 22:06:00,58.3,48.2,29.95,SE,142,0.0,0.0,69,0.00,,---,0.00,VWS V14.01,2013-09-22 03:06:00,
2013-09-21 22:11:00,57.9,48.2,29.95,SE,143,0.0,0.0,70,0.00,,---,0.00,VWS V14.01,2013-09-22 03:11:00,
2013-09-21 22:16:00,57.4,48.1,29.95,SE,142,0.0,0.0,71,0.00,,---,0.00,VWS V14.01,2013-09-22 03:16:00,
2013-09-21 22:22:00,56.9,48.0,29.96,SE,142,0.0,0.0,72,0.00,,---,0.00,VWS V14.01,2013-09-22 03:22:00,
2013-09-21 22:27:00,56.9,48.3,29.96,SE,142,0.0,0.0,73,0.00,,---,0.00,VWS V14.01,2013-09-22 03:27:00,
2013-09-21 22:32:00,57.0,48.4,29.95,SE,142,0.0,0.0,73,0.00,,---,0.00,VWS V14.01,2013-09-22 03:32:00,
2013-09-21 22:37:00,56.6,48.4,29.96,SE,143,0.0,0.0,74,0.00,,---,0.00,VWS V14.01,2013-09-22 03:37:00,
2013-09-21 22:42:00,56.0,48.5,29.96,SE,142,0.0,0.0,76,0.00,,---,0.00,VWS V14.01,2013-09-22 03:42:00,
2013-09-21 22:47:00,55.4,48.7,29.96,SE,142,0.0,0.0,78,0.00,,---,0.00,VWS V14.01,2013-09-22 03:47:00,
2013-09-21 22:52:00,55.3,48.6,29.96,SE,142,0.0,0.0,78,0.00,,---,0.00,VWS V14.01,2013-09-22 03:52:00,
2013-09-21 22:58:00,55.4,48.3,29.96,East,92,0.0,0.0,77,0.00,,---,0.00,VWS V14.01,2013-09-22 03:58:00,
2013-09-21 23:01:00,55.3,48.2,29.96,East,92,0.0,0.0,77,0.00,,---,0.00,VWS V14.01,2013-09-22 04:01:00,
2013-09-21 23:02:00,55.3,48.2,29.96,East,91,0.0,0.0,77,0.00,,---,0.00,VWS V14.01,2013-09-22 04:02:00,
2013-09-21 23:03:00,55.3,48.2,29.96,ESE,113,0.0,0.0,77,0.00,,---,0.00,VWS V14.01,2013-09-22 04:03:00,
2013-09-21 23:08:00,55.4,48.3,29.96,SE,145,0.0,1.0,77,0.00,,---,0.00,VWS V14.01,2013-09-22 04:08:00,
2013-09-21 23:13:00,55.5,48.4,29.97,SSE,152,1.0,1.0,77,0.00,,---,0.00,VWS V14.01,2013-09-22 04:13:00,
2013-09-21 23:18:00,55.6,48.9,29.96,SE,128,0.0,1.0,78,0.00,,---,0.00,VWS V14.01,2013-09-22 04:18:00,
2013-09-21 23:24:00,55.7,49.3,29.96,SSW,212,1.0,2.0,79,0.00,,---,0.00,VWS V14.01,2013-09-22 04:24:00,
2013-09-21 23:29:00,55.5,49.1,29.97,SE,132,0.0,0.0,79,0.00,,---,0.00,VWS V14.01,2013-09-22 04:29:00,
2013-09-21 23:34:00,55.3,48.9,29.96,SE,127,1.0,1.0,79,0.00,,---,0.00,VWS V14.01,2013-09-22 04:34:00,
2013-09-21 23:39:00,55.2,49.2,29.96,East,98,0.0,2.0,80,0.00,,---,0.00,VWS V14.01,2013-09-22 04:39:00,
2013-09-21 23:44:00,55.0,49.3,29.96,East,98,0.0,2.0,81,0.00,,---,0.00,VWS V14.01,2013-09-22 04:44:00,
2013-09-21 23:50:00,54.7,48.7,29.96,East,99,0.0,2.0,80,0.00,,---,0.00,VWS V14.01,2013-09-22 04:50:00,
2013-09-21 23:55:00,54.7,49.0,29.96,ESE,120,0.0,2.0,81,0.00,,---,0.00,VWS V14.01,2013-09-22 04:55:00,